Wind_Speed
5 5 4 3 1 1 1 3 2 3 3 4 3 2 2 2 3 4 5 6 7 7 7 7 8 8 8 7 6 6 5 5 4 4 4 4 5 5 5 5 5 5 5 5 5 5 5 5 5
6 5 4 4 3 2 2 3 4 4 5 5 5 4 4 3 4 5 6 7 8 8 9 9 9 9 9 8 8 7 6 6 5 5 5 6 6 6 6 5 5 5 5 5 5 4 4 4 3
8 7 6 5 5 4 3 4 4 4 4 4 5 5 5 5 5 6 7 9 9 10 10 11 11 10 10 9 8 8 7 7 7 7 7 8 8 8 7 7 7 7 6 6 6 5 5 4 4
10 10 8 7 6 6 6 6 5 5 4 4 5 6 6 7 7 8 9 9 10 11 12 12 12 12 11 10 10 9 9 9 9 9 10 10 10 10 10 9 9 9 9 8 8 8 7 7 6
13 12 12 11 10 9 9 9 8 8 5 5 6 6 7 8 8 9 10 11 11 12 12 13 13 12 12 11 11 12 12 12 12 12 12 13 13 13 13 13 13 12 12 12 11 11 10 10 9
16 16 15 15 14 13 13 13 11 10 8 7 7 7 8 8 9 10 11 12 12 12 13 14 14 13 13 13 13 13 14 14 14 14 14 15 15 15 15 15 16 15 15 15 15 14 14 13 12
19 18 18 18 18 16 16 16 15 13 11 9 9 9 9 9 9 10 11 12 12 13 14 14 15 15 15 15 14 14 15 15 16 16 16 16 17 17 17 17 18 18 18 18 18 18 17 16 16
21 21 21 21 21 20 20 19 18 16 13 12 11 11 10 9 10 11 12 12 13 14 15 16 17 17 17 17 17 16 17 17 17 18 18 18 18 18 19 19 19 19 19 19 19 19 20 19 19
23 23 22 23 24 23 23 22 20 18 16 14 13 12 12 11 12 13 14 14 14 16 17 18 18 19 19 19 20 20 19 19 19 19 19 19 20 20 20 20 20 20 20 20 19 20 20 20 20
23 23 23 26 28 27 25 24 23 21 19 18 17 16 15 14 14 16 17 17 18 19 20 20 21 21 22 22 23 23 22 21 21 21 21 21 21 21 21 21 21 20 20 20 19 20 21 21 21
23 22 24 27 29 29 28 26 26 25 23 22 21 19 18 18 19 20 20 21 21 22 23 23 23 24 25 25 26 25 24 23 23 23 23 22 22 22 22 22 22 22 21 21 21 21 22 22 22
24 22 24 26 30 31 30 29 29 28 27 26 24 22 21 21 22 23 24 24 24 25 25 26 26 27 27 27 27 27 26 25 25 25 25 25 24 24 23 23 23 23 23 23 22 22 22 22 22
24 23 23 25 29 32 32 32 32 31 30 29 27 25 24 24 25 25 25 25 25 26 27 28 29 30 31 30 30 29 28 28 28 27 27 27 26 25 24 23 24 25 24 24 24 23 23 22 22
24 23 23 25 28 32 34 34 34 33 32 31 29 28 27 26 27 26 25 25 26 27 28 29 31 32 35 35 33 33 32 32 32 30 29 27 27 27 26 25 25 25 25 24 24 24 23 22 22
23 23 23 25 27 30 33 34 35 34 34 33 32 31 30 30 28 27 26 25 28 29 30 32 33 32 34 36 35 35 33 33 33 32 30 28 28 28 27 26 26 25 26 25 25 25 24 23 23
21 22 23 24 26 28 30 31 32 33 33 33 33 31 31 30 29 28 29 28 29 30 32 34 35 34 35 36 36 36 35 35 34 32 30 29 30 30 28 27 26 25 26 26 26 25 24 23 23
20 21 22 24 25 27 28 29 28 28 29 29 30 29 29 29 29 29 29 30 32 34 36 37 37 36 37 36 36 34 32 32 32 32 31 31 31 30 29 28 27 27 27 26 26 25 25 24 23
19 20 21 22 24 25 26 26 27 25 26 26 27 28 28 29 31 31 32 34 35 36 38 38 37 37 35 36 36 35 32 29 29 31 29 28 29 29 29 28 27 27 26 27 26 26 25 24 23
19 20 20 22 23 24 25 24 24 23 23 24 26 28 29 31 33 34 35 37 38 38 38 37 35 36 36 34 31 28 26 26 28 27 26 26 27 29 28 27 27 27 27 27 25 25 25 25 24
18 18 19 21 22 24 25 23 22 22 23 25 27 28 30 32 35 38 39 39 38 37 36 35 35 35 33 31 28 25 25 25 25 26 26 26 27 27 28 28 28 27 26 26 27 26 25 25 25
16 16 17 18 19 21 23 23 22 22 24 26 28 30 32 34 35 37 38 37 37 37 38 36 35 35 32 30 29 30 28 26 26 26 27 28 28 27 28 27 27 28 27 27 27 27 26 26 25
12 14 15 16 17 19 20 21 21 23 26 27 28 29 31 32 33 34 35 35 36 36 35 36 36 35 33 33 33 32 30 29 29 29 30 31 32 31 30 30 30 30 30 29 28 28 28 27 26
11 13 14 15 15 17 18 20 20 22 24 25 27 27 29 30 30 31 32 32 33 34 35 36 37 37 37 37 36 35 35 33 33 33 34 36 37 36 36 35 34 33 33 32 31 31 30 30 29
11 12 12 13 14 15 16 17 18 19 20 22 23 25 27 27 28 29 29 30 32 34 35 36 37 39 40 40 40 40 40 39 38 38 39 39 39 39 40 39 39 38 37 36 36 34 33 33 33
12 13 13 13 12 13 14 15 17 18 19 21 23 26 27 28 29 28 29 31 33 35 37 38 40 41 42 43 44 44 44 44 43 44 44 44 44 43 44 43 43 42 42 40 40 39 38 37 36
13 13 13 14 14 14 15 16 17 19 21 23 25 27 28 29 31 32 33 34 36 37 39 41 42 44 45 46 47 47 48 49 49 49 49 49 49 48 47 47 47 47 46 45 44 43 43 42 41
12 12 13 15 16 16 17 18 19 21 23 24 26 28 30 32 34 35 36 37 38 40 42 43 45 46 47 48 49 50 51 52 53 53 53 53 53 52 52 51 51 51 50 50 49 48 47 47 45
11 13 15 17 19 19 20 20 22 24 26 27 29 31 33 35 36 38 39 40 42 43 45 46 47 48 50 51 52 52 53 54 55 56 56 56 56 56 56 56 55 55 54 54 53 52 51 50 49
12 14 15 17 18 21 23 23 25 27 29 31 33 35 37 38 40 41 43 45 46 47 48 49 50 51 52 53 53 54 54 55 55 56 56 57 57 58 58 59 59 58 58 58 57 56 55 54 53
13 15 17 18 20 22 24 26 27 30 32 34 36 38 40 42 44 46 47 49 50 50 51 52 53 54 55 55 56 56 56 56 56 56 56 56 56 57 58 59 59 60 60 61 61 60 59 58 57
Wind_Direction
179 183 185 188 194 255 351 0 3 7 3 358 359 0 341 323 312 298 294 291 294 299 303 307 309 313 314 320 327 334 340 346 350 354 356 358 355 350 348 349 351 356 2 7 11 14 17 20 25
196 205 218 234 242 256 319 340 346 352 344 338 334 334 332 322 310 305 300 299 299 300 301 301 302 305 307 310 313 316 318 319 320 322 324 325 326 325 323 322 325 328 332 337 342 345 347 351 353
219 226 232 239 244 272 296 311 319 331 333 325 327 326 326 325 320 314 308 306 305 303 300 298 297 300 302 303 304 304 304 303 303 305 307 308 308 308 308 307 306 307 309 312 314 313 313 313 313
232 237 242 241 249 272 279 280 293 296 307 318 324 325 323 323 322 318 315 312 308 305 301 296 294 295 296 296 296 296 295 294 295 297 298 298 299 299 298 299 297 296 295 296 296 296 293 292 291
242 245 248 251 253 263 272 272 278 277 276 303 310 311 318 322 321 320 318 315 310 305 301 297 293 292 291 291 290 291 291 292 292 292 293 292 292 293 293 293 292 290 289 288 288 288 286 284 282
249 252 255 257 258 264 265 266 268 269 275 289 298 300 307 314 319 321 317 312 308 303 302 299 295 291 290 289 288 289 290 291 291 291 291 291 291 291 290 289 289 287 286 285 284 282 282 280 278
250 254 256 260 262 264 265 270 270 269 272 281 288 288 296 306 313 316 314 310 307 303 301 300 296 292 291 288 287 288 289 289 290 290 290 289 289 289 288 287 286 285 283 282 281 280 278 277 276
252 253 254 258 262 263 265 269 271 273 270 274 282 287 295 305 311 315 313 308 306 303 301 299 298 295 292 289 287 288 288 288 289 290 291 290 289 288 288 287 285 284 282 281 280 279 278 276 275
254 253 252 254 259 262 267 269 273 277 278 278 279 283 294 300 308 313 311 309 307 304 303 298 295 293 291 288 287 287 286 287 288 289 290 289 288 288 287 286 285 283 281 280 279 278 277 276 275
257 254 251 251 257 262 265 269 275 279 284 288 287 286 291 297 303 307 308 305 302 301 299 296 294 292 289 287 285 283 284 285 285 286 288 288 288 288 288 287 286 285 283 281 278 277 276 275 274
262 258 252 250 256 261 264 268 275 279 283 288 287 288 291 295 301 304 304 303 301 299 297 294 294 290 288 285 284 280 280 282 282 283 284 286 286 287 287 287 286 285 284 281 278 276 275 274 274
265 260 254 251 255 259 263 268 272 277 282 285 287 288 291 295 298 300 301 300 299 297 294 291 292 288 284 282 280 275 275 276 278 279 281 282 283 286 286 286 285 284 283 281 280 277 276 275 275
265 262 257 252 251 256 261 265 269 273 277 279 282 284 285 288 291 293 296 297 297 297 296 291 291 289 285 281 277 273 272 271 270 272 275 278 281 283 284 283 282 282 282 281 281 279 277 276 276
265 263 258 254 251 252 255 259 264 268 271 273 276 277 278 279 282 287 291 293 295 293 291 292 294 290 289 285 280 272 271 267 266 264 267 272 278 279 279 279 279 280 279 279 280 279 277 275 274
263 262 259 256 254 254 256 258 261 264 266 268 269 271 274 277 280 283 285 287 292 292 294 294 294 292 291 288 285 275 269 267 264 261 261 266 271 274 274 274 275 277 278 277 277 276 275 273 272
263 261 258 256 255 254 256 257 261 265 266 267 267 269 271 275 279 282 285 287 289 293 296 295 295 294 292 289 285 277 271 269 266 261 259 262 265 268 270 270 273 275 277 275 274 273 271 270 269
261 259 258 255 256 255 256 260 264 265 265 267 268 269 272 275 279 283 286 288 291 294 295 296 297 294 292 290 287 285 279 275 267 260 260 261 263 265 265 269 271 271 272 272 270 269 269 267 266
262 260 257 255 256 258 259 263 265 265 266 266 269 271 273 277 281 284 286 288 290 291 293 295 296 295 295 293 288 286 285 279 272 266 262 261 262 263 265 268 271 272 271 270 268 267 266 264 264
264 263 259 257 259 260 261 265 267 267 266 267 271 275 276 279 281 283 285 288 289 290 294 293 293 295 295 292 288 288 283 282 279 271 265 265 266 266 267 269 271 270 269 268 266 266 264 263 262
268 268 267 264 265 265 265 268 269 269 270 273 275 278 280 280 282 284 286 286 287 288 291 293 293 296 297 293 290 291 289 285 278 272 270 271 274 275 272 272 270 268 268 266 266 263 262 261 259
274 274 274 274 274 273 273 275 277 277 277 277 279 280 284 284 284 286 285 284 286 287 290 290 295 296 297 295 295 294 293 288 282 277 276 276 277 279 277 273 269 268 269 269 266 264 262 259 257
280 282 283 282 281 281 283 284 282 283 284 283 284 286 288 288 289 290 287 286 286 287 288 289 291 293 293 294 293 291 290 286 285 282 277 276 277 276 275 273 271 270 269 267 264 263 261 260 258
289 293 292 291 290 289 288 288 289 288 289 289 288 290 294 295 294 293 289 287 290 290 289 289 289 289 290 291 290 290 288 283 282 280 278 277 276 273 271 271 270 267 267 265 263 262 261 260 258
296 301 302 303 303 297 295 293 294 292 293 294 293 295 298 300 301 297 292 291 292 292 291 291 290 288 288 289 288 289 288 285 282 280 278 276 273 271 269 269 268 265 265 263 262 261 260 259 258
295 301 304 304 304 305 304 301 300 297 295 297 299 300 302 304 305 304 302 299 296 294 293 291 291 290 290 289 288 287 286 284 282 280 278 275 272 269 267 265 265 263 263 262 260 259 259 258 257
293 300 306 308 309 309 306 305 305 305 301 300 300 302 304 306 307 306 305 302 299 296 294 293 292 291 290 289 288 287 285 284 282 279 277 274 272 269 267 264 262 260 259 259 258 257 257 256 255
300 303 310 312 314 312 310 308 306 307 306 306 305 306 308 308 308 306 305 303 301 298 296 294 293 291 290 289 289 288 286 284 282 280 277 274 272 269 267 264 262 260 258 257 256 255 255 254 254
308 310 310 312 314 314 312 311 312 310 310 311 310 310 309 309 308 307 306 305 303 301 299 297 295 293 292 291 290 289 287 284 282 280 277 274 272 269 266 264 262 260 258 256 255 253 253 252 252
314 313 313 313 313 313 314 315 314 313 314 314 313 313 313 313 312 311 309 308 307 305 302 300 299 297 296 294 292 290 289 287 284 282 279 276 273 270 267 264 262 259 257 255 253 252 251 250 250
319 316 314 313 314 314 316 317 317 317 317 316 316 316 316 316 315 314 313 312 311 309 307 305 303 302 300 298 296 293 291 289 286 283 280 278 275 271 268 264 261 259 257 254 252 251 250 249 248
Height
5913 5913 5914 5914 5915 5914 5913 5913 5912 5911 5911 5910 5910 5910 5910 5910 5910 5912 5910 5908 5907 5906 5906 5905 5904 5903 5902 5901 5899 5898 5897 5897 5896 5896 5896 5895 5895 5895 5894 5894 5894 5893 5893 5893 5893 5893 5893 5892 5892
5914 5914 5915 5915 5915 5914 5914 5913 5912 5912 5911 5910 5910 5910 5909 5909 5909 5909 5908 5907 5906 5906 5905 5904 5903 5902 5901 5900 5899 5898 5897 5896 5895 5895 5895 5894 5894 5893 5893 5893 5892 5892 5892 5892 5892 5892 5892 5892 5892
5914 5914 5915 5915 5914 5914 5914 5913 5912 5911 5911 5911 5910 5909 5909 5909 5908 5908 5907 5906 5906 5905 5904 5903 5902 5901 5900 5899 5898 5897 5896 5895 5894 5894 5893 5893 5892 5892 5892 5891 5891 5891 5891 5891 5891 5891 5891 5891 5891
5914 5914 5915 5915 5914 5913 5913 5913 5912 5911 5910 5910 5909 5909 5908 5908 5907 5907 5906 5905 5904 5904 5903 5902 5901 5900 5899 5898 5897 5896 5895 5894 5893 5893 5892 5891 5891 5890 5890 5890 5889 5889 5889 5889 5889 5889 5890 5890 5890
5912 5913 5913 5912 5912 5912 5912 5911 5910 5910 5910 5909 5909 5908 5907 5907 5906 5905 5905 5904 5903 5903 5902 5901 5900 5898 5897 5896 5895 5894 5893 5893 5892 5891 5890 5890 5889 5888 5888 5887 5887 5887 5887 5887 5887 5887 5887 5888 5888
5911 5911 5911 5910 5910 5910 5910 5909 5909 5909 5908 5908 5908 5907 5907 5906 5905 5905 5904 5903 5903 5902 5901 5900 5898 5897 5896 5895 5893 5893 5892 5891 5890 5889 5888 5887 5887 5886 5885 5885 5884 5884 5884 5884 5884 5884 5884 5885 5885
5909 5908 5908 5908 5907 5907 5907 5907 5907 5907 5906 5906 5906 5906 5905 5905 5904 5903 5903 5902 5901 5900 5899 5898 5897 5895 5894 5893 5892 5891 5890 5889 5888 5887 5886 5885 5884 5883 5883 5882 5881 5881 5881 5880 5880 5880 5881 5881 5881
5905 5906 5905 5905 5904 5905 5905 5904 5904 5904 5905 5904 5904 5904 5904 5904 5903 5902 5901 5901 5900 5899 5898 5896 5895 5893 5892 5891 5889 5888 5887 5886 5885 5884 5883 5882 5881 5880 5879 5879 5878 5877 5877 5877 5877 5876 5877 5877 5877
5902 5904 5903 5902 5901 5901 5901 5902 5902 5902 5903 5902 5902 5902 5902 5901 5901 5900 5899 5898 5897 5896 5895 5893 5892 5891 5889 5888 5887 5885 5884 5883 5882 5880 5880 5878 5877 5876 5875 5875 5874 5873 5873 5873 5873 5872 5872 5873 5873
5898 5899 5900 5898 5897 5898 5898 5899 5899 5900 5900 5900 5900 5900 5899 5899 5898 5897 5896 5895 5894 5893 5891 5890 5888 5887 5885 5884 5883 5881 5880 5878 5877 5876 5875 5874 5873 5872 5871 5870 5870 5869 5869 5869 5868 5868 5868 5868 5868
5894 5896 5896 5895 5894 5894 5895 5895 5896 5896 5897 5897 5897 5896 5896 5895 5895 5894 5893 5892 5890 5889 5887 5885 5884 5882 5881 5879 5878 5876 5875 5874 5873 5871 5870 5869 5868 5867 5867 5866 5865 5865 5864 5864 5864 5864 5863 5863 5864
5890 5891 5891 5892 5891 5891 5891 5892 5892 5892 5893 5893 5892 5892 5892 5891 5891 5890 5889 5888 5886 5884 5882 5880 5879 5877 5875 5873 5871 5870 5870 5868 5867 5866 5865 5864 5863 5862 5862 5861 5861 5860 5859 5859 5859 5859 5858 5858 5858
5885 5887 5887 5888 5887 5887 5887 5887 5887 5888 5888 5888 5888 5888 5888 5887 5887 5886 5884 5883 5881 5879 5877 5875 5873 5870 5868 5866 5864 5863 5863 5861 5859 5859 5858 5857 5856 5857 5856 5856 5855 5854 5854 5853 5853 5853 5853 5853 5853
5881 5882 5882 5883 5882 5882 5882 5882 5882 5883 5883 5882 5883 5883 5882 5882 5881 5881 5879 5878 5876 5873 5871 5869 5866 5864 5861 5859 5857 5856 5854 5853 5852 5851 5850 5850 5850 5850 5850 5849 5849 5848 5848 5848 5847 5847 5847 5847 5848
5877 5878 5878 5878 5877 5877 5877 5877 5876 5877 5877 5877 5877 5877 5877 5877 5876 5875 5874 5872 5870 5867 5865 5862 5859 5856 5854 5851 5848 5846 5844 5844 5844 5842 5841 5842 5842 5843 5843 5843 5842 5842 5842 5842 5842 5842 5841 5841 5842
5873 5873 5873 5873 5872 5872 5873 5872 5872 5871 5872 5872 5872 5872 5872 5871 5870 5869 5868 5866 5863 5860 5857 5854 5852 5849 5846 5843 5840 5837 5834 5835 5835 5833 5833 5834 5834 5835 5835 5836 5836 5836 5835 5835 5836 5836 5836 5836 5836
5869 5869 5869 5868 5868 5868 5868 5867 5868 5867 5867 5867 5867 5867 5866 5866 5864 5863 5861 5859 5856 5854 5851 5847 5844 5841 5838 5836 5832 5829 5827 5826 5825 5825 5825 5826 5826 5827 5828 5829 5829 5829 5829 5829 5829 5830 5830 5830 5830
5866 5865 5865 5865 5864 5864 5864 5863 5863 5864 5863 5863 5863 5862 5861 5860 5858 5856 5855 5852 5849 5847 5843 5840 5836 5833 5828 5826 5824 5822 5818 5818 5818 5817 5816 5817 5818 5819 5821 5821 5821 5822 5822 5822 5822 5823 5824 5825 5825
5862 5862 5861 5861 5861 5860 5860 5860 5860 5859 5859 5859 5858 5857 5856 5854 5851 5849 5847 5845 5842 5839 5835 5832 5828 5824 5820 5817 5814 5811 5810 5811 5811 5810 5809 5810 5811 5812 5813 5813 5813 5814 5815 5815 5815 5816 5817 5818 5819
5859 5859 5858 5858 5857 5857 5856 5856 5856 5855 5855 5854 5853 5852 5850 5848 5846 5843 5840 5837 5834 5831 5828 5825 5821 5818 5814 5809 5807 5806 5807 5806 5805 5805 5804 5804 5805 5805 5805 5805 5806 5806 5807 5807 5808 5809 5810 5811 5812
5857 5856 5855 5855 5854 5853 5852 5852 5852 5851 5850 5850 5848 5846 5844 5841 5839 5836 5831 5829 5826 5824 5821 5818 5815 5811 5808 5805 5804 5803 5802 5800 5800 5798 5798 5798 5798 5798 5798 5798 5799 5800 5800 5800 5800 5801 5802 5804 5805
5854 5854 5853 5852 5851 5850 5850 5848 5848 5847 5846 5844 5842 5840 5837 5834 5831 5828 5824 5821 5819 5817 5814 5811 5808 5805 5801 5800 5799 5797 5795 5794 5793 5792 5792 5791 5791 5790 5790 5791 5791 5792 5792 5792 5793 5794 5795 5796 5797
5852 5852 5851 5850 5848 5847 5846 5845 5845 5843 5841 5839 5836 5833 5830 5827 5824 5820 5817 5814 5812 5809 5806 5803 5800 5798 5796 5793 5791 5789 5787 5786 5785 5784 5783 5782 5782 5781 5781 5782 5782 5783 5784 5784 5785 5786 5786 5788 5789
5851 5850 5849 5847 5846 5845 5844 5842 5841 5839 5836 5834 5831 5828 5824 5821 5817 5814 5810 5807 5805 5801 5798 5795 5792 5789 5786 5784 5782 5779 5777 5775 5774 5773 5773 5772 5771 5771 5771 5771 5772 5772 5773 5774 5775 5776 5777 5778 5779
5849 5848 5847 5845 5844 5843 5841 5839 5838 5834 5832 5829 5826 5823 5819 5815 5811 5808 5804 5801 5797 5793 5789 5786 5782 5779 5776 5773 5770 5768 5765 5763 5762 5761 5760 5760 5759 5759 5759 5759 5759 5760 5761 5762 5763 5764 5766 5768 5769
5846 5846 5845 5843 5841 5840 5838 5836 5834 5830 5827 5824 5821 5817 5813 5809 5805 5801 5796 5792 5788 5784 5780 5776 5772 5768 5764 5760 5757 5754 5751 5749 5747 5746 5745 5744 5744 5744 5744 5744 5745 5746 5747 5748 5750 5752 5754 5756 5758
5844 5843 5842 5840 5838 5836 5834 5832 5830 5826 5823 5819 5815 5811 5807 5803 5798 5793 5788 5783 5779 5774 5769 5765 5760 5756 5751 5747 5743 5739 5736 5733 5731 5729 5728 5727 5726 5726 5727 5727 5728 5729 5731 5733 5735 5737 5739 5742 5744
5842 5840 5839 5837 5834 5832 5830 5828 5825 5821 5818 5814 5809 5805 5801 5796 5790 5785 5779 5773 5768 5762 5757 5752 5747 5742 5737 5732 5728 5723 5719 5716 5713 5710 5709 5707 5707 5707 5707 5708 5710 5711 5713 5715 5718 5721 5723 5726 5729
5840 5838 5835 5833 5831 5828 5825 5825 5820 5816 5811 5807 5802 5797 5791 5786 5780 5774 5768 5762 5755 5749 5743 5737 5731 5726 5721 5715 5710 5706 5702 5697 5694 5691 5688 5687 5686 5686 5686 5687 5689 5691 5693 5696 5699 5702 5706 5709 5713
5837 5834 5832 5831 5828 5825 5822 5821 5814 5809 5804 5799 5794 5788 5782 5775 5769 5762 5755 5748 5741 5734 5727 5721 5714 5708 5703 5697 5692 5687 5683 5678 5674 5671 5668 5666 5665 5664 5664 5665 5667 5669 5672 5675 5679 5683 5687 5691 5695